Paris / Charles De Gaulle, France

7:10 PM CET on November 18, 2017 (GMT +0100)
Charles de Gaulle

Weather History for LFPG - January, 2013

Change the Weather History Date:

Wednesday, January 9, 2013

  Actual Average Record
Temperature  
Mean Temperature 40 °F -  
Max Temperature 42 °F 43 °F 57 °F (1998)
Min Temperature 37 °F 34 °F 14 °F (2009)
Degree Days  
Heating Degree Days 26    
Moisture  
Dew Point 37 °F    
Average Humidity 90    
Maximum Humidity 100    
Minimum Humidity 81    
Precipitation  
Precipitation 0.00 in - - ()
Sea Level Pressure  
Sea Level Pressure 30.20 in    
Wind  
Wind Speed 7 mph ()    
Max Wind Speed 12 mph    
Max Gust Speed -    
Visibility 3.7 miles    
Events Rain    
Averages and records for this station are not official NWS values.
T = Trace of Precipitation, MM = Missing Value Source: Averaged Metar Reports

Daily Weather History Graph

Daily Weather History Graph

Search for Another Location

Airport or City:

Trip Planner

Search our weather history database for the weather conditions in past years. The results will help you decide how hot, cold, wet, or windy it might be!

Date:

Astronomy

Jan. 09, 2013 Rise Set
Actual Time 8:42 AM CET 5:12 PM CET
Civil Twilight 8:05 AM CET 5:48 PM CET
Nautical Twilight 7:25 AM CET 6:28 PM CET
Astronomical Twilight 6:47 AM CET 7:07 PM CET
Moon 6:05 AM CET (1/9) 2:57 PM CET (1/9)
Length of Visible Light 9h 43m
Length of Day
8h 30m
Waning Crescent, 8% of the Moon is Illuminated
Jan 9
Waning Crescent
Jan 11
New
Jan 19
First Quarter
Jan 27
Full
Feb 3
Last Quarter

Hourly Weather History & Observations

Time (CET) Temp. Windchill Dew Point Humidity Pressure Visibility Wind Dir Wind Speed Gust Speed Precip Events Conditions
12:00 AM 39.2 °F 34.2 °F 35.6 °F 87% 30.33 in 4.3 mi South 6.9 mph - N/A   Mostly Cloudy
12:30 AM 39.2 °F 34.2 °F 35.6 °F 87% 30.30 in 5.0 mi SSW 6.9 mph - N/A   Mostly Cloudy
1:00 AM 39.2 °F 34.2 °F 35.6 °F 87% 30.30 in 5.0 mi South 6.9 mph - N/A   Mostly Cloudy
1:30 AM 39.2 °F 33.6 °F 35.6 °F 87% 30.30 in 5.0 mi South 8.1 mph - N/A   Mostly Cloudy
2:00 AM 39.2 °F 33.6 °F 35.6 °F 87% 30.30 in 5.6 mi South 8.1 mph - N/A   Mostly Cloudy
2:30 AM 39.2 °F 33.6 °F 35.6 °F 87% 30.30 in 5.6 mi South 8.1 mph - N/A   Mostly Cloudy
3:00 AM 39.2 °F 33.6 °F 35.6 °F 87% 30.30 in 5.6 mi SSW 8.1 mph - N/A   Mostly Cloudy
3:30 AM 39.2 °F 34.2 °F 35.6 °F 87% 30.30 in 6.2 mi SSW 6.9 mph - N/A   Mostly Cloudy
4:00 AM 39.2 °F 34.2 °F 35.6 °F 87% 30.27 in 6.2 mi South 6.9 mph - N/A   Mostly Cloudy
4:30 AM 39.2 °F 34.2 °F 35.6 °F 87% 30.27 in 6.2 mi South 6.9 mph - N/A   Mostly Cloudy
5:00 AM 37.4 °F 32.1 °F 33.8 °F 87% 30.27 in 6.2 mi South 6.9 mph - N/A   Mostly Cloudy
5:30 AM 39.2 °F 34.2 °F 35.6 °F 87% 30.24 in 6.2 mi South 6.9 mph - N/A   Mostly Cloudy
6:00 AM 39.2 °F 33.6 °F 35.6 °F 87% 30.24 in 6.2 mi SSW 8.1 mph - N/A   Mostly Cloudy
6:30 AM 39.2 °F 33.6 °F 35.6 °F 87% 30.24 in 6.2 mi SSW 8.1 mph - N/A   Mostly Cloudy
7:00 AM 39.2 °F 33.6 °F 35.6 °F 87% 30.24 in 6.2 mi SW 8.1 mph - N/A   Mostly Cloudy
7:30 AM 39.2 °F 34.2 °F 35.6 °F 87% 30.24 in 6.2 mi SW 6.9 mph - N/A   Mostly Cloudy
8:00 AM 39.2 °F 34.2 °F 35.6 °F 87% 30.24 in 6.2 mi SW 6.9 mph - N/A   Mostly Cloudy
8:30 AM 39.2 °F 34.2 °F 35.6 °F 87% 30.24 in 5.6 mi SSW 6.9 mph - N/A   Mostly Cloudy
9:00 AM 39.2 °F 34.2 °F 35.6 °F 87% 30.24 in 5.6 mi South 6.9 mph - N/A   Mostly Cloudy
9:30 AM 39.2 °F 33.0 °F 35.6 °F 87% 30.24 in 5.6 mi South 9.2 mph - N/A   Mostly Cloudy
10:00 AM 39.2 °F 32.5 °F 35.6 °F 87% 30.21 in 5.6 mi SSW 10.4 mph - N/A   Mostly Cloudy
10:30 AM 39.2 °F 32.0 °F 35.6 °F 87% 30.24 in 6.2 mi SSW 11.5 mph - N/A   Mostly Cloudy
11:00 AM 39.2 °F 33.0 °F 35.6 °F 87% 30.24 in 6.2 mi SSW 9.2 mph - N/A   Overcast
11:30 AM 39.2 °F 33.0 °F 35.6 °F 87% 30.21 in 6.2 mi SSW 9.2 mph - N/A   Mostly Cloudy
12:00 PM 39.2 °F 33.0 °F 35.6 °F 87% 30.21 in 6.2 mi South 9.2 mph - N/A   Mostly Cloudy
12:30 PM 41.0 °F 35.8 °F 35.6 °F 81% 30.21 in 2.8 mi SSW 8.1 mph - N/A   Light Drizzle
1:00 PM 39.2 °F 33.6 °F 37.4 °F 93% 30.18 in 2.8 mi SSW 8.1 mph - N/A Rain Rain
1:30 PM 39.2 °F 33.6 °F 37.4 °F 93% 30.18 in 2.8 mi SSW 8.1 mph - N/A Rain Rain
2:00 PM 41.0 °F 35.2 °F 37.4 °F 87% 30.15 in 1.6 mi SSW 9.2 mph - N/A Rain Rain
2:30 PM 39.2 °F 33.6 °F 37.4 °F 93% 30.15 in 3.1 mi Variable 8.1 mph - N/A   Light Drizzle
3:00 PM 41.0 °F 36.4 °F 37.4 °F 87% 30.15 in 3.7 mi Variable 6.9 mph - N/A   Mostly Cloudy
3:30 PM 41.0 °F 37.1 °F 39.2 °F 93% 30.15 in 1.1 mi SSW 5.8 mph - N/A   Light Drizzle
4:00 PM 41.0 °F 37.1 °F 39.2 °F 93% 30.15 in 0.9 mi SSW 5.8 mph - N/A   Light Drizzle
4:30 PM 41.0 °F 37.1 °F 39.2 °F 93% 30.15 in 0.7 mi SSW 5.8 mph - N/A Rain Light Drizzle
5:00 PM 41.0 °F 37.1 °F 39.2 °F 93% 30.15 in 1.1 mi SSW 5.8 mph - N/A Rain Light Drizzle
5:30 PM 41.0 °F 38.0 °F 39.2 °F 93% 30.12 in 1.1 mi SSW 4.6 mph - N/A Rain Rain
6:00 PM 41.0 °F 37.1 °F 39.2 °F 93% 30.12 in 1.1 mi SSW 5.8 mph - N/A   Light Drizzle
6:30 PM 41.0 °F 38.0 °F 39.2 °F 93% 30.12 in 1.1 mi South 4.6 mph - N/A   Light Drizzle
7:00 PM 41.0 °F 37.1 °F 39.2 °F 93% 30.12 in 1.2 mi SSW 5.8 mph - N/A   Light Drizzle
7:30 PM 41.0 °F 38.0 °F 39.2 °F 93% 30.12 in 1.2 mi SSW 4.6 mph - N/A   Light Drizzle
8:00 PM 41.0 °F 37.1 °F 39.2 °F 93% 30.12 in 1.2 mi SSW 5.8 mph - N/A   Light Drizzle
8:30 PM 41.0 °F 38.0 °F 41.0 °F 100% 30.12 in 0.8 mi Variable 4.6 mph - N/A   Light Drizzle
9:00 PM 41.0 °F 37.1 °F 39.2 °F 93% 30.12 in 0.9 mi SSW 5.8 mph - N/A   Light Drizzle
9:30 PM 41.0 °F 36.4 °F 39.2 °F 93% 30.12 in 0.9 mi SSW 6.9 mph - N/A   Light Drizzle
10:00 PM 41.0 °F 38.0 °F 41.0 °F 100% 30.12 in 0.9 mi SW 4.6 mph - N/A   Light Drizzle
10:30 PM 42.8 °F 39.3 °F 41.0 °F 93% 30.12 in 0.9 mi WSW 5.8 mph - N/A   Light Drizzle
11:00 PM 42.8 °F 40.1 °F 41.0 °F 93% 30.09 in 0.9 mi SW 4.6 mph - N/A   Light Drizzle
11:30 PM 41.0 °F 37.1 °F 41.0 °F 100% 30.09 in 0.9 mi SW 5.8 mph - N/A   Light Drizzle